Regional Weather Roundup
Issued by NWS

Home | Current Version | Previous Version | Graphics & Text | Print | Product List | Glossary On
Versions: 1 2 3 4 5 6 7 8 9 10 11 12 13 14 15 16 17 18 19 20 21 22 23 24 25 26 27 28 29 30 31 32 33 34 35 36 37 38 39 40 41 42 43 44 45 46 47 48 49 50
000
ASUS43 KLSX 260407
RWRMO

WEATHER SUMMARY FOR MISSOURI
NATIONAL WEATHER SERVICE SPRINGFIELD MO
1100 PM CDT MON MAY 25 2015

NOTE: "FAIR" INDICATES FEW OR NO CLOUDS BELOW 12,000 FEET WITH NO
       SIGNIFICANT WEATHER AND/OR OBSTRUCTIONS TO VISIBILITY.
       CURRENT SKY AND/OR WEATHER CONDITIONS ARE NOT AVAILABLE FOR
       CHILLICOTHE AND FARMINGTON.

MOZ001>031-035>038-043-044-053-054-260500-
...NORTHERN AND WESTERN MISSOURI...

CITY           SKY/WX    TMP DP  RH WIND       PRES   REMARKS
KANSAS CTY INT CLOUDY    65  57  75 NE17      29.83F
KANSAS C DTWN  CLOUDY    71  60  68 N15       29.80F
LEE`S SUMMIT   CLOUDY    71  66  84 E5        29.82F
ST JOSEPH      CLOUDY    62  59  90 NE7       29.82F
CHILLICOTHE      N/A     68  58  70 VRB5      29.87R
KIRKSVILLE     MOCLDY    68  65  90 S7        29.87F

$$
MOZ066>068-077>081-088>096-101>105-260500-
...SOUTHWEST MISSOURI...

CITY           SKY/WX    TMP DP  RH WIND       PRES   REMARKS
SPRINGFIELD    LGT RAIN  68  64  87 SE18G25   29.84F
JOPLIN         CLOUDY    64  60  87 E10       29.77F

$$
MOZ032>034-039>042-045>050-055>058-069>072-260500-
...CENTRAL MISSOURI...

CITY           SKY/WX    TMP DP  RH WIND       PRES   REMARKS
COLUMBIA       CLOUDY    72  65  78 SE10      29.89S
JEFFERSON CITY CLOUDY    73  65  75 SE10      29.88S
ROLLA          CLOUDY    71  65  81 SE12      29.91S
SEDALIA        CLOUDY    73  65  75 SE12      29.87R
WARRENSBURG    CLOUDY    72  64  78 SE7       29.83S
OSAGE BEACH    CLOUDY    72  64  78 SE8       29.88F

$$
MOZ051-052-059>065-260500-
...EAST CENTRAL MISSOURI...

CITY           SKY/WX    TMP DP  RH WIND       PRES   REMARKS
ST LOUIS INTL  MOCLDY    75  65  70 SE9       29.96R
SPIRIT OF STL  MOCLDY    73  66  78 SE5       29.94R
ST CHARLES     MOCLDY    73  66  78 SE9       29.93S

$$
MOZ072>076-082>087-097>100-106>115-260500-
...SOUTH CENTRAL AND SOUTHEAST MISSOURI...

CITY           SKY/WX    TMP DP  RH WIND       PRES   REMARKS
CAPE GIRARDEAU MOCLDY    71  68  90 SE10      29.98F
FARMINGTON     CLOUDY    70  66  88 SE13      30.00F
POPLAR BLUFF   CLOUDY    73  69  87 SE10      29.96F
WEST PLAINS    CLOUDY    71  66  84 SE9       29.93F

$$


USA.gov is the U.S. government's official web portal to all federal, state and local government web resources and services.